Wind_Speed
53 52 50 50 49 47 46 45 43 42 40 39 38 36 35 34 33 32 32 30 29 28 27 26 25 24 24 23 23 22 22 23 23 24 25 26 28 29 30 32 33 35 36
55 53 52 51 50 49 47 46 45 43 41 40 39 38 37 35 35 34 33 31 30 29 28 27 26 26 25 25 24 24 24 24 25 26 27 28 29 30 32 33 35 36 37
56 55 53 52 51 49 47 46 45 44 42 41 40 39 38 36 35 34 33 32 31 30 29 28 27 27 26 26 26 25 26 26 27 27 28 29 30 31 33 34 36 37 38
57 56 54 52 51 50 48 47 46 45 44 42 41 39 37 36 34 34 34 33 32 31 30 29 29 28 28 27 27 27 27 28 28 28 29 31 32 33 34 35 37 38 39
57 56 55 53 51 51 49 48 47 46 45 44 42 40 39 37 36 36 35 34 33 32 31 30 30 29 29 29 28 28 29 29 29 30 30 31 33 34 36 36 38 39 40
58 57 55 55 53 52 51 49 48 47 46 45 43 41 39 39 38 37 36 35 34 33 32 32 31 31 30 30 30 30 30 30 30 31 32 33 34 36 37 38 39 40 40
58 58 57 56 54 53 52 51 49 48 47 46 44 42 40 40 39 38 37 36 35 34 33 33 32 32 31 31 31 31 31 31 31 32 33 34 35 37 38 39 40 40 41
58 58 58 56 55 54 53 52 50 48 48 47 45 43 42 41 40 39 38 37 36 35 35 34 33 33 33 33 33 32 32 32 33 33 34 35 36 38 39 40 41 41 41
56 58 58 57 56 55 54 52 51 49 48 48 47 45 44 43 41 40 39 38 37 36 36 35 35 34 34 34 34 34 34 33 34 35 35 36 38 39 40 41 42 43 42
54 57 58 58 56 56 55 53 51 50 49 49 48 47 45 44 43 42 41 39 38 37 37 37 36 36 36 35 35 35 35 35 35 36 36 37 39 40 41 42 43 43 44
53 55 56 57 57 56 56 55 52 51 50 50 49 48 47 45 45 44 42 41 39 39 38 37 37 37 37 37 36 36 36 36 36 37 37 38 40 41 42 43 43 44 44
52 54 56 55 55 56 56 56 54 52 51 50 50 49 48 47 46 45 43 42 41 40 39 39 39 38 38 37 37 37 37 37 37 38 38 39 41 41 42 43 44 44 45
51 53 55 56 55 56 57 57 55 53 52 51 50 50 49 48 46 46 45 44 42 42 41 41 40 39 39 38 37 37 37 38 38 38 39 40 41 42 43 43 44 45 45
51 52 53 55 56 55 57 58 57 55 54 53 51 50 50 49 48 47 47 46 45 44 43 42 41 40 40 39 38 38 38 38 38 39 40 41 41 42 43 44 44 44 45
49 51 53 54 55 55 56 58 57 56 55 54 53 51 50 50 49 48 48 47 46 45 44 43 42 41 40 39 39 38 38 38 39 39 40 41 41 42 43 44 44 44 45
48 49 51 53 55 54 55 57 57 57 56 54 53 52 51 51 50 49 49 48 47 46 45 44 43 42 41 40 39 39 39 39 39 40 40 41 41 42 43 43 44 45 45
49 50 51 52 54 55 55 56 57 57 56 54 53 53 52 51 51 50 49 48 47 46 45 44 43 41 41 40 39 39 40 40 40 40 40 41 41 43 43 43 44 45 45
49 51 51 52 53 53 55 55 56 56 55 54 53 52 52 52 51 50 49 48 47 46 46 45 43 42 41 41 40 40 41 40 39 39 40 41 41 41 42 42 43 43 44
48 51 51 52 53 53 53 54 55 56 56 55 53 53 52 52 52 51 50 49 48 47 45 44 43 42 42 42 41 41 40 40 40 40 40 41 41 41 42 42 43 44 45
47 50 52 52 52 53 53 53 53 55 55 55 54 54 53 52 52 51 50 49 48 47 46 44 44 43 43 42 41 40 41 41 41 40 40 41 41 41 42 42 43 44 45
47 50 51 52 51 51 52 54 54 54 55 55 55 54 53 52 52 51 50 50 49 48 46 46 45 44 43 42 41 41 41 41 41 41 41 41 40 41 41 42 43 44 45
45 48 51 52 52 51 51 52 54 54 54 55 54 53 53 53 53 52 50 50 50 48 47 47 46 45 43 41 41 41 41 41 41 41 40 40 40 40 41 42 43 44 45
44 47 49 51 51 52 52 52 52 53 54 54 54 52 51 52 52 51 50 49 49 49 48 48 47 45 43 43 42 41 40 40 40 40 39 39 39 39 40 41 42 43 45
45 46 48 50 50 50 51 51 51 51 52 53 54 53 52 51 51 50 50 48 48 47 47 46 45 45 44 43 42 41 40 39 39 39 39 38 38 39 40 41 42 43 44
45 46 47 47 48 49 50 50 50 49 50 51 52 53 53 52 51 50 49 48 48 47 46 45 45 44 44 42 42 41 39 38 38 38 38 38 38 39 40 41 41 42 43
44 45 47 47 47 48 49 49 48 48 48 48 49 50 51 51 50 50 49 48 47 47 46 45 44 43 42 41 40 39 38 38 37 37 37 38 38 38 39 40 40 41 42
Wind_Direction
215 215 216 216 217 217 217 218 218 218 219 219 219 221 222 224 225 227 229 232 235 239 244 248 252 257 264 270 275 280 285 289 293 296 300 304 307 309 311 313 314 315 315
215 215 215 215 217 218 217 218 218 219 219 219 220 221 223 224 226 228 230 233 236 240 245 249 252 258 264 269 274 278 283 287 291 295 299 303 305 307 309 311 313 314 314
215 215 215 215 216 217 218 219 219 219 219 219 221 222 223 225 227 229 231 234 237 241 245 249 253 258 264 268 273 277 281 286 290 293 298 302 304 306 308 310 311 312 313
215 215 216 215 215 216 218 220 220 219 219 220 221 223 224 226 227 230 232 235 238 242 246 250 254 258 263 268 272 276 280 284 288 291 295 299 303 305 307 309 310 311 312
216 216 216 216 216 217 218 219 220 220 220 221 221 222 224 225 227 230 233 236 239 242 246 250 254 258 263 267 271 275 279 282 286 290 294 298 302 304 306 308 309 310 311
216 216 216 216 217 217 218 219 220 221 221 221 221 222 224 226 229 231 234 237 241 244 246 250 254 258 262 266 270 274 278 281 284 289 293 297 300 303 305 306 308 309 310
217 217 217 218 218 218 218 220 221 221 222 222 222 222 225 227 229 231 234 237 241 244 247 250 253 257 262 266 269 273 276 280 283 288 292 295 299 302 304 305 307 308 309
219 219 218 218 219 219 219 220 221 222 222 223 222 223 225 228 230 232 235 238 241 244 247 250 253 257 262 265 269 272 275 279 283 287 291 294 298 301 303 305 306 307 308
220 219 219 219 219 220 220 222 222 224 224 224 224 225 226 228 231 233 236 239 241 244 247 250 254 258 262 265 267 271 274 278 282 286 290 294 297 300 303 304 305 307 308
221 220 220 219 220 220 220 222 223 224 224 225 225 226 228 229 231 234 237 239 242 244 247 250 254 258 261 264 267 270 273 277 281 285 289 293 297 300 301 303 304 306 307
222 221 221 220 220 220 221 221 222 224 225 226 226 227 229 230 232 235 237 240 242 245 247 250 254 257 260 264 267 270 273 277 281 285 289 293 296 299 301 302 303 305 307
224 224 223 222 222 221 221 222 223 224 225 227 227 228 229 231 233 235 237 240 242 245 248 250 253 257 260 263 266 270 273 276 280 284 288 292 295 298 300 302 303 305 306
225 224 224 225 224 224 223 223 223 224 226 227 229 230 231 232 234 236 237 239 242 245 248 250 253 256 258 262 266 269 272 276 280 284 288 292 295 297 299 301 303 305 306
226 225 225 225 225 225 224 224 224 225 226 228 230 231 232 233 234 236 238 240 242 244 247 250 252 255 258 261 265 268 272 276 280 283 287 291 294 296 299 301 302 304 306
225 225 225 225 224 225 226 225 225 226 227 228 230 232 233 234 235 236 238 240 242 244 246 249 251 254 257 261 264 267 272 276 279 283 287 290 293 296 298 299 301 304 306
225 225 226 225 225 225 226 227 226 227 227 228 230 232 233 234 235 236 238 240 242 244 246 248 251 254 257 260 263 268 271 275 279 283 286 289 292 295 297 298 300 304 306
225 224 225 226 226 225 226 226 227 227 228 228 229 231 232 234 235 236 238 239 241 243 245 248 251 253 256 259 263 267 270 274 278 282 286 289 292 294 295 297 301 303 306
225 225 225 225 225 226 226 226 227 227 228 229 229 230 232 233 235 236 238 239 240 243 245 248 251 253 256 259 263 266 270 275 278 282 285 289 292 293 295 298 301 303 306
224 224 224 225 225 225 226 226 226 226 227 229 230 230 232 234 234 236 237 239 241 243 245 248 251 253 256 259 263 266 270 274 278 281 285 288 291 293 296 298 301 303 305
223 223 224 224 225 226 226 227 227 226 226 227 229 230 232 233 235 235 236 239 241 243 245 247 250 253 256 259 262 266 270 274 277 281 284 287 290 293 296 297 300 302 305
223 222 223 224 225 226 226 227 227 227 227 227 228 230 231 233 234 236 237 238 240 242 244 246 249 253 256 260 263 267 271 274 277 280 283 286 289 292 295 297 300 303 305
225 223 223 224 224 225 226 226 227 227 227 228 228 230 231 232 233 235 237 239 240 241 244 247 250 253 256 260 264 268 271 274 277 280 283 286 290 293 295 298 301 303 306
227 224 223 224 224 224 225 226 226 227 228 229 229 229 231 234 234 235 237 239 241 243 245 248 251 253 257 260 264 267 269 272 276 280 284 287 291 293 296 299 301 304 307
228 226 224 224 226 225 225 226 227 228 228 229 229 230 231 234 235 236 237 239 241 244 246 249 251 254 257 260 263 266 268 272 276 280 283 287 290 293 296 299 301 304 307
227 226 225 224 225 225 226 227 228 229 229 229 230 231 233 235 236 236 238 239 241 243 246 248 250 253 256 260 263 266 269 272 276 279 282 286 290 293 297 299 301 304 306
227 226 225 225 226 227 228 227 228 229 230 231 231 232 234 235 236 237 238 238 240 242 244 246 249 253 256 259 262 265 269 272 276 278 282 286 290 293 296 299 301 304 306
Height
5694 5701 5709 5717 5724 5731 5738 5745 5751 5757 5762 5768 5774 5778 5783 5787 5791 5795 5798 5802 5805 5808 5810 5812 5814 5815 5816 5816 5817 5816 5816 5815 5814 5813 5811 5810 5807 5804 5801 5798 5794 5791 5787
5684 5693 5701 5708 5716 5724 5731 5738 5744 5750 5756 5762 5767 5771 5775 5780 5784 5788 5792 5796 5799 5802 5804 5806 5808 5809 5810 5811 5811 5811 5811 5810 5809 5808 5806 5804 5802 5799 5796 5792 5788 5785 5780
5676 5684 5692 5700 5708 5716 5724 5731 5737 5743 5749 5754 5759 5764 5769 5773 5778 5782 5786 5790 5793 5796 5798 5800 5802 5803 5805 5805 5805 5805 5805 5804 5803 5802 5800 5798 5796 5793 5790 5786 5782 5778 5774
5667 5676 5684 5692 5700 5709 5716 5723 5729 5735 5741 5746 5752 5757 5763 5768 5773 5776 5779 5783 5786 5789 5792 5794 5796 5797 5798 5799 5799 5799 5799 5798 5797 5796 5794 5792 5789 5787 5784 5780 5776 5771 5767
5658 5667 5676 5684 5692 5700 5707 5714 5721 5727 5733 5738 5744 5750 5756 5760 5764 5768 5772 5776 5779 5782 5785 5787 5789 5791 5792 5793 5793 5793 5793 5792 5791 5789 5787 5785 5783 5779 5777 5774 5769 5764 5760
5649 5658 5667 5675 5683 5691 5698 5705 5712 5719 5725 5731 5737 5743 5748 5753 5757 5761 5765 5769 5772 5775 5778 5780 5782 5784 5785 5786 5786 5786 5786 5785 5784 5783 5781 5778 5776 5773 5769 5766 5762 5758 5753
5639 5648 5657 5666 5674 5682 5689 5697 5704 5710 5716 5723 5729 5735 5740 5745 5750 5754 5758 5762 5765 5769 5771 5773 5775 5777 5778 5778 5779 5779 5779 5778 5777 5775 5774 5771 5769 5766 5762 5758 5754 5750 5746
5629 5638 5647 5656 5665 5673 5680 5688 5695 5702 5708 5714 5721 5727 5732 5737 5742 5746 5750 5754 5758 5761 5763 5766 5767 5769 5770 5771 5772 5772 5772 5771 5770 5768 5766 5764 5761 5758 5754 5750 5747 5743 5739
5619 5628 5637 5645 5654 5663 5671 5679 5686 5693 5700 5706 5713 5718 5724 5729 5734 5738 5742 5746 5750 5753 5755 5758 5760 5761 5762 5763 5764 5764 5764 5763 5762 5761 5759 5756 5753 5750 5746 5742 5738 5735 5731
5609 5617 5626 5635 5644 5652 5661 5669 5677 5684 5691 5697 5703 5710 5715 5721 5725 5730 5734 5738 5741 5744 5747 5750 5752 5753 5754 5755 5756 5756 5756 5756 5754 5753 5751 5748 5745 5742 5738 5734 5730 5726 5722
5600 5608 5616 5625 5634 5642 5651 5659 5667 5674 5681 5688 5694 5701 5706 5712 5716 5721 5726 5729 5733 5736 5739 5741 5743 5745 5746 5747 5748 5748 5748 5747 5746 5745 5743 5740 5737 5734 5730 5726 5722 5718 5713
5591 5599 5607 5615 5623 5632 5641 5649 5657 5665 5672 5678 5685 5691 5697 5702 5707 5712 5716 5720 5724 5727 5730 5732 5735 5736 5738 5739 5740 5740 5740 5739 5738 5736 5734 5732 5728 5725 5722 5718 5714 5709 5705
5582 5590 5597 5605 5613 5622 5630 5639 5647 5655 5662 5668 5675 5681 5687 5693 5698 5703 5707 5711 5714 5718 5721 5723 5726 5728 5729 5730 5731 5731 5731 5731 5729 5728 5726 5723 5720 5717 5713 5709 5705 5701 5696
5573 5580 5587 5595 5604 5612 5620 5629 5637 5644 5651 5658 5665 5672 5678 5684 5689 5693 5697 5701 5705 5708 5712 5714 5717 5719 5720 5721 5722 5723 5722 5722 5721 5719 5717 5715 5712 5709 5705 5701 5697 5692 5688
5563 5570 5577 5585 5593 5601 5609 5618 5626 5634 5641 5648 5655 5662 5668 5673 5678 5683 5687 5691 5695 5699 5702 5705 5707 5709 5711 5713 5713 5714 5713 5713 5712 5710 5709 5706 5703 5700 5696 5692 5688 5684 5679
5553 5560 5568 5575 5583 5591 5599 5607 5615 5623 5631 5638 5645 5652 5657 5663 5668 5673 5677 5681 5685 5688 5692 5695 5698 5700 5702 5704 5704 5704 5704 5704 5703 5702 5700 5697 5694 5691 5687 5683 5679 5675 5670
5544 5551 5558 5566 5573 5581 5588 5596 5604 5612 5619 5627 5634 5640 5646 5652 5658 5662 5667 5671 5675 5678 5682 5685 5688 5690 5692 5694 5695 5695 5695 5695 5694 5692 5690 5688 5685 5682 5678 5674 5670 5666 5661
5534 5541 5548 5556 5563 5570 5578 5585 5593 5601 5608 5616 5623 5629 5635 5641 5647 5652 5656 5661 5665 5668 5672 5675 5678 5681 5683 5684 5685 5685 5685 5685 5685 5683 5681 5679 5676 5673 5669 5666 5661 5657 5652
5523 5530 5538 5545 5552 5560 5567 5575 5582 5590 5597 5605 5612 5618 5624 5630 5636 5641 5646 5650 5654 5658 5662 5665 5668 5671 5673 5675 5675 5676 5676 5676 5675 5674 5672 5670 5667 5664 5660 5657 5653 5649 5644
5513 5520 5528 5535 5542 5550 5557 5564 5571 5579 5586 5593 5601 5607 5613 5619 5625 5630 5635 5640 5644 5648 5652 5655 5658 5661 5663 5665 5666 5666 5666 5666 5666 5664 5663 5661 5658 5655 5651 5648 5644 5640 5635
5503 5510 5517 5525 5532 5539 5546 5553 5561 5568 5575 5582 5589 5596 5602 5608 5614 5619 5624 5629 5634 5638 5642 5646 5649 5651 5654 5655 5656 5656 5656 5656 5655 5654 5653 5651 5649 5645 5642 5638 5634 5630 5625
5492 5499 5507 5514 5521 5528 5536 5543 5550 5557 5564 5571 5578 5585 5591 5597 5603 5608 5613 5618 5623 5627 5631 5635 5638 5641 5643 5645 5646 5647 5647 5646 5646 5645 5644 5642 5639 5636 5633 5629 5625 5620 5615
5483 5489 5496 5504 5510 5518 5525 5532 5539 5546 5553 5560 5567 5574 5580 5586 5592 5598 5603 5608 5613 5617 5621 5625 5628 5631 5633 5635 5636 5636 5637 5636 5636 5635 5634 5632 5630 5627 5624 5620 5616 5611 5606
5472 5479 5486 5494 5500 5507 5514 5522 5528 5535 5542 5549 5556 5563 5570 5575 5581 5587 5593 5598 5602 5607 5611 5614 5618 5620 5623 5625 5625 5626 5627 5627 5626 5626 5625 5623 5620 5618 5615 5611 5607 5602 5597
5462 5469 5476 5483 5490 5497 5504 5511 5518 5525 5532 5539 5546 5552 5559 5564 5570 5576 5582 5587 5592 5596 5601 5604 5607 5610 5613 5614 5616 5616 5617 5617 5617 5616 5615 5613 5611 5609 5605 5602 5598 5593 5588
5452 5459 5466 5473 5480 5487 5494 5500 5507 5514 5521 5528 5535 5541 5548 5554 5559 5565 5571 5575 5581 5585 5589 5593 5597 5599 5602 5604 5605 5607 5607 5607 5607 5607 5606 5604 5602 5599 5596 5593 5588 5584 5579